Weather History for Cedar City, UT

Change the Weather History Date:

Tuesday, November 20, 2012

  Actual Average Record
Temperature  
Mean Temperature 44 °F 36 °F  
Max Temperature 61 °F 50 °F 67 °F (2006)
Min Temperature 26 °F 22 °F -7 °F (1956)
Degree Days  
Heating Degree Days 21 29  
Month to date heating degree days 453 507  
Since 1 July heating degree days 912 1126  
Cooling Degree Days 0 0  
Month to date cooling degree days 0 0  
Year to date cooling degree days 715 588  
Moisture  
Dew Point 25 °F    
Average Humidity 55    
Maximum Humidity 85    
Minimum Humidity 25    
Precipitation  
Precipitation 0.00 in 0.03 in 0.18 in (1990)
Month to date precipitation 0.62 0.65  
Year to date precipitation 11.45 10.19  
Sea Level Pressure  
Sea Level Pressure 30.16 in    
Wind  
Wind Speed 7 mph (South)    
Max Wind Speed 22 mph    
Max Gust Speed 28 mph    
Visibility 10 miles    
Events      
T = Trace of Precipitation, MM = Missing Value Source: NWS Daily Summary

Daily Weather History Graph

Daily Weather History Graph

Search for Another Location

Airport:

Trip Planner

Search our weather history database for the weather conditions in past years. The results will help you decide how hot, cold, wet, or windy it might be!

Date:

Astronomy

Nov. 20, 2012 Rise Set
Actual Time 7:18 AM MST 5:17 PM MST
Civil Twilight 6:50 AM MST 5:46 PM MST
Nautical Twilight 6:18 AM MST 6:17 PM MST
Astronomical Twilight 5:46 AM MST 6:49 PM MST
Moon 12:58 PM MST (11/20) No Moon Set
Length of Visible Light 10h 56m
Length of Day
9h 59m
First Quarter, 52% of the Moon is Illuminated
Nov 20
First Quarter
Nov 28
Full
Dec 6
Last Quarter
Dec 13
New
Dec 19
First Quarter

Hourly Weather History & Observations

Time (MST) Temp. Windchill Dew Point Humidity Pressure Visibility Wind Dir Wind Speed Gust Speed Precip Events Conditions
12:53 AM 32.0 °F 28.7 °F 25.0 °F 75% 30.25 in 10.0 mi East 3.5 mph - N/A   Clear
1:53 AM 30.0 °F - 24.1 °F 79% 30.23 in 10.0 mi Calm Calm - N/A   Clear
2:53 AM 28.9 °F 25.2 °F 24.1 °F 82% 30.25 in 10.0 mi East 3.5 mph - N/A   Clear
3:53 AM 32.0 °F 26.4 °F 25.0 °F 75% 30.23 in 10.0 mi SW 5.8 mph - N/A   Clear
5:53 AM 28.9 °F - 23.0 °F 78% 30.26 in 10.0 mi Calm Calm - N/A   Clear
6:53 AM 30.0 °F - 23.0 °F 75% 30.25 in 10.0 mi Calm Calm - N/A   Clear
7:53 AM 28.0 °F 24.2 °F 24.1 °F 85% 30.27 in 10.0 mi South 3.5 mph - N/A   Clear
8:53 AM 39.9 °F 37.8 °F 28.9 °F 65% 30.24 in 10.0 mi East 3.5 mph - N/A   Clear
9:53 AM 48.9 °F - 26.1 °F 41% 30.21 in - North - - N/A   Clear
10:53 AM 55.9 °F - 30.0 °F 37% 30.18 in 7.0 mi North - - N/A   Unknown
12:53 PM 60.1 °F - 28.0 °F 30% 30.12 in 10.0 mi SW 18.4 mph 25.3 mph N/A   Clear
1:53 PM 61.0 °F - 27.0 °F 27% 30.09 in 10.0 mi SSW 15.0 mph 26.5 mph N/A   Clear
2:53 PM 61.0 °F - 25.0 °F 25% 30.08 in 10.0 mi SSW 17.3 mph 21.9 mph N/A   Clear
3:53 PM 59.0 °F - 25.0 °F 27% 30.07 in 10.0 mi SSW 17.3 mph 25.3 mph N/A   Clear
4:53 PM 55.0 °F - 25.0 °F 31% 30.10 in 10.0 mi SW 10.4 mph - N/A   Clear
5:53 PM 50.0 °F - 23.0 °F 35% 30.11 in 10.0 mi SW 9.2 mph - N/A   Clear
6:53 PM 48.0 °F - 21.9 °F 36% 30.12 in 10.0 mi SW 5.8 mph - N/A   Clear
7:53 PM 46.9 °F - 21.9 °F 37% 30.13 in 10.0 mi SW 3.5 mph - N/A   Clear
8:53 PM 39.9 °F 35.1 °F 21.9 °F 49% 30.13 in 10.0 mi ENE 6.9 mph - N/A   Clear
9:53 PM 37.9 °F 33.5 °F 21.0 °F 51% 30.10 in 10.0 mi NNE 5.8 mph - N/A   Clear
10:53 PM 35.1 °F - 21.9 °F 59% 30.09 in 10.0 mi Calm Calm - N/A   Clear
11:53 PM 39.9 °F 33.4 °F 25.0 °F 55% 30.06 in 10.0 mi SSW 10.4 mph - N/A   Clear